This demonstration page uses our WeatherBlox Daily Observations layout. Learn more.

Hourly Observations for January 9, 2019

Temp ( °F °C ) Dew Point ( °F °C ) Humidity (%) Winds ( mph kmh ) Pressure ( in mb ) Visibility ( mi km ) Precip ( " mm )
12:15 am 00:15 Clear 27 -2.6 19 -7 72 72 NW 6 9 30.62 1037 10 16.0934 0 0
12:35 am 00:35 Clear 27 -2.9 19 -7.2 73 73 WNW 5 7 30.62 1037 10 16.0934 0 0
12:55 am 00:55 Clear 27 -2.7 19 -7.5 70 70 WNW 5 7 30.62 1037 10 16.0934 0 0
1:15 am 01:15 Clear 26 -3.5 19 -7.2 76 76 NW 6 9 30.62 1037 10 16.0934 0 0
1:35 am 01:35 Clear 26 -3.5 19 -7 77 77 WNW 6 9 30.62 1037 10 16.0934 0 0
1:55 am 01:55 Clear 25 -3.7 19 -7.1 78 78 WNW 6 9 30.62 1037 10 16.0934 0 0
2:15 am 02:15 Clear 25 -4.1 19 -7 80 80 NW 6 9 30.65 1038 10 16.0934 0 0
2:35 am 02:35 Clear 25 -3.9 20 -6.7 81 81 NW 6 9 30.65 1038 10 16.0934 0 0
2:55 am 02:55 Clear 25 -4 19 -7.2 79 79 NW 5 7 30.65 1038 10 16.0934 0 0
3:15 am 03:15 Clear 25 -4.1 19 -7.2 79 79 WNW 5 7 30.65 1038 10 16.0934 0 0
3:35 am 03:35 Clear 24 -4.2 19 -7.1 80 80 NW 6 9 30.65 1038 10 16.0934 0 0
3:55 am 03:55 Clear 24 -4.7 19 -7.3 82 82 NW 6 9 30.65 1038 10 16.0934 0 0
4:15 am 04:15 Clear 22 -5.3 19 -7.5 85 85 NW 5 7 30.65 1038 10 16.0934 0 0
4:35 am 04:35 Clear 23 -5.1 18 -7.6 83 83 W 6 9 30.62 1037 10 16.0934 0 0
4:55 am 04:55 Clear 23 -5 18 -7.7 82 82 W 6 9 30.62 1037 10 16.0934 0 0
5:15 am 05:15 Clear 24 -4.4 19 -7.3 80 80 WNW 5 7 30.62 1037 10 16.0934 0 0
5:35 am 05:35 Clear 24 -4.7 18 -7.6 80 80 WNW 6 9 30.62 1037 10 16.0934 0 0
5:55 am 05:55 Clear 23 -5.1 18 -8 80 80 WNW 6 9 30.62 1037 10 16.0934 0 0
6:15 am 06:15 Clear 24 -4.6 18 -8 77 77 NW 6 9 30.62 1037 10 16.0934 0 0
6:35 am 06:35 Clear 25 -4.1 18 -8 75 75 NNW 6 9 30.62 1037 10 16.0934 0 0
6:55 am 06:55 Clear 23 -5 17 -8.1 79 79 NNW 5 7 30.62 1037 10 16.0934 0 0
7:15 am 07:15 Clear 21 -5.9 18 -7.8 87 87 NNW 5 7 30.65 1038 10 16.0934 0 0
7:35 am 07:35 Clear 22 -5.8 18 -7.6 87 87 NW 3 6 30.65 1038 10 16.0934 0 0
7:55 am 07:55 Clear 21 -6 18 -7.7 88 88 NNW 3 6 30.65 1038 10 16.0934 0 0
8:15 am 08:15 Sunny 22 -5.8 18 -7.6 87 87 NNW 3 6 30.65 1038 10 16.0934 0 0
8:35 am 08:35 Sunny 22 -5.5 19 -7.5 86 86 NW 3 6 30.65 1038 10 16.0934 0 0
8:55 am 08:55 Sunny 23 -5.1 20 -6.9 87 87 NW 3 6 30.68 1039 10 16.0934 0 0
9:15 am 09:15 Sunny 25 -3.8 21 -6.3 83 83 Calm 30.65 1038 10 16.0934 0 0
9:35 am 09:35 Sunny 27 -2.9 21 -6.3 78 78 Calm 30.65 1038 10 16.0934 0 0
9:55 am 09:55 Sunny 28 -2.2 20 -6.8 71 71 NNE 6 9 30.65 1038 10 16.0934 0 0
10:15 am 10:15 Sunny 29 -1.5 19 -7.4 65 65 NE 5 7 30.62 1037 10 16.0934 0 0
10:35 am 10:35 Sunny 29 -1.5 18 -7.9 62 62 NE 6 9 30.62 1037 10 16.0934 0 0
10:55 am 10:55 Sunny 30 -1.1 18 -7.7 61 61 NE 6 9 30.62 1037 10 16.0934 0 0
11:15 am 11:15 Sunny 30 -0.9 17 -8.1 59 59 ENE 6 9 30.62 1037 10 16.0934 0 0
11:35 am 11:35 Sunny 31 -0.5 17 -8.1 57 57 ENE 3 6 30.59 1036 10 16.0934 0 0
11:55 am 11:55 Sunny 32 -0.1 19 -7.3 59 59 ENE 7 11 30.59 1036 10 16.0934 0 0
12:15 pm 12:15 Sunny 32 0 19 -7.3 58 58 E 5 7 30.59 1036 10 16.0934 0 0
12:35 pm 12:35 Sunny 32 0.1 20 -6.6 61 61 SE 6 9 30.59 1036 10 16.0934 0 0
12:55 pm 12:55 Sunny 33 0.5 21 -6.1 62 62 ESE 6 9 30.53 1034 10 16.0934 0 0
1:15 pm 13:15 Sunny 33 0.8 21 -6 61 61 SE 6 9 30.53 1034 10 16.0934 0 0
1:35 pm 13:35 Sunny 34 1.2 21 -6.1 59 59 SE 8 13 30.5 1033 10 16.0934 0 0
1:55 pm 13:55 Sunny 35 1.5 21 -5.9 58 58 SE 7 11 30.5 1033 10 16.0934 0 0
2:15 pm 14:15 Sunny 36 2 23 -5.1 60 60 ESE 8 13 30.5 1033 10 16.0934 0 0
2:35 pm 14:35 Sunny 35 1.8 23 -5.1 61 61 ESE 9 15 30.48 1032 10 16.0934 0 0
2:55 pm 14:55 Sunny 35 1.7 23 -5.1 61 61 SE 9 15 30.48 1032 10 16.0934 0 0
3:15 pm 15:15 Sunny 35 1.7 23 -5.1 61 61 ESE 10 17 30.48 1032 10 16.0934 0 0
3:35 pm 15:35 Sunny 35 1.8 23 -5 61 61 SE 13 20 30.45 1031 10 16.0934 0 0
3:55 pm 15:55 Sunny 35 1.7 24 -4.5 64 64 ESE 10 17 30.45 1031 10 16.0934 0 0
4:15 pm 16:15 Sunny 34 1.3 23 -4.8 64 64 SE 10 17 30.45 1031 10 16.0934 0 0
4:35 pm 16:35 Sunny 33 0.8 24 -4.4 69 69 ESE 8 13 30.45 1031 10 16.0934 0 0
4:55 pm 16:55 Sunny 33 0.4 26 -3.6 75 75 ESE 7 11 30.45 1031 10 16.0934 0 0
5:15 pm 17:15 Sunny 32 0 25 -3.9 75 75 SE 8 13 30.45 1031 10 16.0934 0 0
5:35 pm 17:35 Clear 31 -0.5 25 -4 77 77 ESE 6 9 30.48 1032 10 16.0934 0 0
5:55 pm 17:55 Clear 31 -0.5 25 -3.8 79 79 ESE 7 11 30.48 1032 10 16.0934 0 0
6:15 pm 18:15 Clear 30 -1 25 -4.1 80 80 ESE 9 15 30.45 1031 10 16.0934 0 0
6:35 pm 18:35 Clear 30 -1.1 25 -4 81 81 ESE 9 15 30.45 1031 10 16.0934 0 0
6:55 pm 18:55 Clear 29 -1.4 25 -4.1 82 82 SE 8 13 30.45 1031 10 16.0934 0 0
7:15 pm 19:15 Clear 29 -1.9 24 -4.5 83 83 SE 8 13 30.45 1031 10 16.0934 0 0
7:35 pm 19:35 Clear 28 -2.2 24 -4.5 84 84 SE 7 11 30.45 1031 10 16.0934 0 0
7:55 pm 19:55 Clear 28 -2.5 24 -4.6 86 86 SE 8 13 30.45 1031 10 16.0934 0 0
8:15 pm 20:15 Clear 28 -2.5 24 -4.5 86 86 SE 8 13 30.45 1031 10 16.0934 0 0
8:35 pm 20:35 Clear 28 -2.3 24 -4.5 85 85 SE 8 13 30.42 1030 10 16.0934 0 0
8:55 pm 20:55 Clear 28 -2 23 -5 80 80 SE 10 17 30.42 1030 10 16.0934 0 0
9:15 pm 21:15 Clear 28 -2 22 -5.5 77 77 SE 12 19 30.42 1030 10 16.0934 0 0
9:35 pm 21:35 Clear 29 -1.9 22 -5.8 75 75 SE 13 20 30.42 1030 10 16.0934 0 0
9:55 pm 21:55 Clear 28 -2 21 -6 74 74 SE 12 19 30.42 1030 10 16.0934 0 0
10:15 pm 22:15 Clear 28 -2.1 21 -6 75 75 SE 12 19 30.42 1030 10 16.0934 0 0
10:35 pm 22:35 Clear 28 -2.1 21 -6.3 73 73 SE 10 17 30.39 1029 10 16.0934 0 0
10:55 pm 22:55 Clear 28 -2.3 21 -6.3 74 74 SE 9 15 30.39 1029 10 16.0934 0 0
11:15 pm 23:15 Clear 28 -2.2 21 -6.3 74 74 SE 12 19 30.39 1029 10 16.0934 0 0
11:35 pm 23:35 Clear 28 -2.2 21 -6.3 74 74 SE 13 20 30.36 1028 10 16.0934 0 0
11:55 pm 23:55 Clear 27 -2.6 21 -6.3 76 76 SE 9 15 30.36 1028 10 16.0934 0 0

Powered by AerisWeather